Terminal Aerodrome Forecast
Issued by NWS

Home | Current Version | Previous Version | Text Only | Print | Product List | Glossary Off
Versions: 1 2 3 4 5 6 7 8 9 10 11 12 13 14

000
FTUS45 KGGW 191100
TAFSDY
TAF
KSDY 191123Z 1912/2012 VRB04KT P6SM BKN120
     FM191800 18013KT P6SM SCT110
     FM200200 25011KT P6SM SCT110
      AMD LTD TO CLD VIS AND WIND=

USA.gov is the U.S. government's official web portal to all federal, state and local government web resources and services.